Regional Weather Roundup
Issued by NWS Cleveland, OH

Home | Current Version | Previous Version | Graphics & Text | Print | Product List | Glossary On
Versions: 1 2 3 4 5 6 7 8 9 10 11 12 13 14 15 16 17 18 19 20 21 22 23 24 25 26 27 28 29 30 31 32 33 34 35 36 37 38 39 40 41 42 43 44 45 46 47 48 49 50
000
ASUS41 KCLE 260600
RWRCLE
OHIO REGIONAL WEATHER ROUNDUP
NATIONAL WEATHER SERVICE WILMINGTON, OH
200 AM EDT FRI MAY 26 2017

NOTE: "FAIR" INDICATES FEW OR NO CLOUDS BELOW 12,000 FEET WITH NO
SIGNIFICANT WEATHER AND/OR OBSTRUCTIONS TO VISIBILITY.

OHZ001>008-015>018-024>027-034-035-043-044-260700-
   NORTHWEST OHIO

CITY           SKY/WX    TMP DP  RH WIND       PRES   REMARKS
DEFIANCE       FAIR      55  52  89 W6        29.71R
FINDLAY        CLOUDY    60  54  80 W12       29.69S
TOLEDO EXPRESS MOCLDY    59  57  93 W12       29.67S
TOLEDO EXEC    CLOUDY    61  57  87 W9        29.68R
LIMA           FAIR      57  55  93 W15       29.72R
$$

OHZ009>014-019>023-028>033-038-089-260700-
   NORTHEAST OHIO

CITY           SKY/WX    TMP DP  RH WIND       PRES   REMARKS
CLE-HOPKINS    CLOUDY    60  57  89 W9        29.65R
CLE-LAKEFRONT  CLOUDY    58  56  93 W16       29.62R
CUY CO. ARPT   NOT AVBL
LORAIN-ELYRIA  CLOUDY    58  53  84 NW8       29.65S
ASHTABULA      LGT RAIN  55  55 100 W8        29.60R
AKRON-CANTON   CLOUDY    59  55  87 NW9       29.64R
WOOSTER        NOT AVBL
MANSFIELD      CLOUDY    58  57  97 W8        29.67S
YOUNGSTOWN     LGT RAIN  56  55  97 SW9       29.60S FOG
$$

OHZ042-051>053-060>062-070>072-077>081-260700-
  SOUTHWEST OHIO

CITY           SKY/WX    TMP DP  RH WIND       PRES   REMARKS
CINC-COVINGTON FAIR      56  53  90 W7        29.82R
CINC-LUNKEN    FAIR      59  55  87 W7        29.82R
HAMILTON       FAIR      58  57  97 W6        29.81R
DAYTON         NOT AVBL
WRIGHT-PAT AFB NOT AVBL
DAYTON GENERAL FAIR      58  55  90 SW7       29.78R
WILMINGTON     FAIR      58  56  93 W14       29.77R
$$

OHZ036-037-039>041-045>050-054>059-063>069-073>076-082>088-260700-
  CENTRAL AND SOUTHEAST OHIO

CITY           SKY/WX    TMP DP  RH WIND       PRES   REMARKS
COLUMBUS       CLOUDY    60  57  89 W17       29.72R
OSU AIRPORT    CLOUDY    59  57  93 W14       29.72R
BOLTON FIELD   NOT AVBL
RICKENBACK AFB NOT AVBL
NEWARK         LGT RAIN  60  57  89 W6        29.70R
MARION         CLOUDY    59  55  87 W12G21    29.71R
LANCASTER      CLOUDY    62  56  80 W8        29.73R
ZANESVILLE     CLOUDY    61  57  87 W12       29.69R
NEW PHILLY     CLOUDY    60  58  92 W6        29.66R
$$




USA.gov is the U.S. government's official web portal to all federal, state and local government web resources and services.